sat.trackr.live / text

‹ back to catalog

ONEWEB-0458

NORAD 51648 · 2022-012AC

PAYLOAD ACTIVE UNKNOWN

§ Identity

Operator
Country
UK
Launch date
2022-02-10
Launch site
FRGUI
Launch vehicle
Mass (kg)
RCS (m²)

Purposes: comms

External: N2YO · Heavens-Above · Gunter

§ Orbital elements

Epoch: 2026-09-15T01:14:04.264800Z

Period
109.77 min
Inclination
87.8897°
Eccentricity
0.0000344
Mean motion
13.11833582 rev/d
Perigee alt
1,215.8 km
Apogee alt
1,216.3 km
Semi-major
7,594.2 km
B*
-2.2150e-2
RAAN
18.3619°
Arg perigee
126.7082°
Mean anomaly
233.4078°
Rev number
22,107

§ Raw data

ONEWEB-04581 51648U 22012AC  26258.05143825 -.00007879  00000+0 -22150-1 0  99952 51648  87.8897  18.3619 0000344 126.7082 233.4078 13.11833582221072

JSON: /api/v1/satellites/51648 · /tle

For live sub-satellite position, see the globe view (requires WebGL).

§ Visibility from observer

Set your observer location to see the next 7 days of passes ≥ 10°. The values pass through the URL so the page stays shareable.

No JS? Fill the form by hand. The geolocation button needs JavaScript.